SL-4 R/B (49380 NORAD) Tracking and Keplerian Element Data

This shows tracking and keplerian element data for the satellite.

Feedback or suggestion? Click here.




ElementValue
Catalog49380
NameSL-4 R/B
Epoch Orbit37
Epoch Day303.45645309
Epoch Year2021
RAAN32.9096
Inclination51.6399
Eccentricity0.0003799
Argument of Perigee85.031
Mean Anonmoly13.555
Mean Motion16.52256858
Decay Rate0.26230939
L11 49380U 21098B 21303.45645309 .26230939 12747-4 20505-3 0 9993
L22 49380 51.6399 32.9096 0003799 85.0310 13.5550 16.52256858 370

Live tracking and technical data element details for SL-4 R/B (NORAD 49380). SL-4 R/B can be tracked NOW for your location showing map with azimuth and elevation plus other details from your city location.

Track the satellite on the map from your city or location and see movement details for azimuth, elevation, latitude, longitude, range, height, and movement on the map or in text.







IsCatalogInMostPopularTable: catalog: 49380, numindb: 18
Update: records affected: 1



GetName: 49380 SL-4 R/B

Hit Count: updated at: Thu, 20 Jan 2022 17:22:49 GMT